SL-16 DEB, 39722

Orbit data source: Space-Track

SL-16 DEB, 39722 is space debris in LEO originally from a launch on Fri, 25 Dec 1992 UTC launched from the Tyuratam Missile And Space Complex (TTMTR). Debris objects in space refer to the collection of defunct objects orbiting the Earth. Examples of debris include non-operational satellites, rocket bodies, and fragments generated from explosions, collisions, or faulty payload assembly.

Loading next visibility...
Identifier
39722, 1992-093KN
Orbit
LEO
Country
Flag of CISCIS
Related business
Manufacturer
Unknown
Mission
Spacecraft
Bus & Motor
Unknown
Mass
Unknown
Launch date (UTC)
1992-12-25 (33 years ago)
Launch vehicle
Unknown
Launch site
Tyuratam Missile And Space Complex (TTMTR)
Object type
Payload
Rocket body
Debris
Shape & HBR
Unknown shape, 0.1 m
Radar Cross Section
Small (<0.1 m²)

Expand to show TLE details & history
Last TLE update: 1 day ago

TLE from 1 day ago
0 SL-16 DEB
1 39722U 92093KN  26132.56454925  .00000344  00000-0  24439-3 0  9996
2 39722  70.8929  90.0453 0105319 317.0730 158.0571 14.02077814616656
Epoch: 2026-05-12T13:32Z
TLE epoch observation values (Epoch: 2026-05-12T13:32:57.055Z)
Latitude
58.57357°
Longitude
162.13794°
Altitude
967.047 km
Speed
7.338 km/s
True Right ascension
15h 42m 51s
True Declination
58° 25' 29"
Sunlit
Object was in daylight at epoch
Visualization orbit readout
Latitude
Unknown
Longitude
Unknown
Altitude
Unknown
Speed
Unknown
Apparent Right ascension
Unknown
Apparent Declination
Unknown
Sunlit
N/A
Visualization observer readout
Local Sidereal Time
23:49:22
Azimuth
Unknown
Elevation
Unknown
Doppler factor
Unknown
Orbital elements
Apogee altitude
961.047 km
Perigee altitude
808.067 km
Semi-major axis
7,262.694 km
Eccentricity
0.01053
Inclination
70.8929°
RAAN
90.0453°
Arg. of periapsis
317.073°
True anomaly
158.50264°
Mean anomaly
158.0571°
Eccentric anomaly
158.28041°
Mean motion
3.50668 °/min
Orbital period
102.66 mins
BSTAR
0.00024439
Loading maneuver chart data...
Computing Atmospheric mass density...
Loading historical data...
Loading historical data...
Loading historical data...
Loading historical data...
Loading historical data...
Loading historical data...
Loading historical data...

Documentation

Showing up to 5 results
|